www.pogodaiklimat.ru

Погода и климат >> Архив погоды >> Россия >> Забайкальский край >> Могоча


АРХИВ ПОГОДЫ в Могоче

Время (UTC), дата Ветер
(напр.,м/с)
 
Видим.   Явления Облачность Т
(С)
Тd
(С)
f
(%)
Тe
(С)
Тes
(С)
Комфортность P
(гПа)
Po
(гПа)
Тmin
(С)
Tmax
(С)
R
(мм)
R24
(мм)
S
(см)
00 12.06 ЮВ 1 50 км {ливн. осадки} 10/10 600 м
[Cb calv]
+17.3 +15.0 86 +18 +18 998.1 928.3 +11.6 7
03 12.06 ЮЗ 3 50 км 8/6 600 м
[Cb calv Cs]
+19.9 +11.6 59 +22 +26 комфорт 996.8 927.6
06 12.06 З 6-10
{11}
50 км 9/8 600 м
[Cb calv Cs]
+19.6 +9.3 51 +20 +21 997.1 927.7
09 12.06 З 5
{12}
20 км слаб. ливневой дождь 10/9 600 м
[Cb calv Cs]
+14.8 +9.8 72 +13 +14 999.6 928.9
12 12.06 З 5
{11}
50 км в посл. час ливневой дождь 10/10 600 м
[Cb calv]
+13.2 +7.9 70 +11 +11 1000.9 929.7 +21.3 0.3
15 12.06 СЗ 5
{12}
50 км в посл. час ливневой дождь 10/10 600 м
[Cb calv]
+10.8 +7.4 80 +8 +8 1003.3 931.4
18 12.06 СЗ 5-10
{15}
50 км {ливн. осадки} 10/10 600 м
[Cb calv]
+9.6 +5.7 77 +6 +6 1005.6 933.2
21 12.06 С 5-11
{12}
50 км 10/10 600 м
[Cb calv]
+9.5 +4.6 71 +6 +6 1007.3 934.7
00 13.06 С 8-15
{15}
50 км 10/10 600 м
[Cb calv]
+10.7 +4.8 67 +7 +7 1008.4 936.1 +9.2 1
03 13.06 С 5-11
{17}
50 км 9/8 600 м
[Cb calv Ac trans Cc]
+13.4 +5.0 57 +12 +13 1008.9 937.1
06 13.06 С 6-10
{13}
50 км 9/8 600 м
[Cb calv Cc]
+13.7 +4.7 55 +12 +13 1009.3 937.6
09 13.06 С 6
{10}
50 км 6/4 600 м
[Cb calv Ac trans Cc]
+16.9 +3.0 39 +16 +17 1008.3 937.3
12 13.06 С 2
{11}
50 км 1/0
[Ac lent]
+14.3 +3.4 48 +14 +14 1010.4 938.7 +17.6
15 13.06 штиль 0 50 км ясно +3.5 +2.0 90 +2 +2 1014.3 939.7
18 13.06 штиль 0 50 км ясно +1.1 0.0 92 -0 -0 1016.0 940.6
21 13.06 штиль 0 50 км 6/6 1000 м
[Sc]
+0.6 -0.5 92 -1 -0 1017.1 941.5
00 14.06 З 1 50 км 9/0
[Ac trans]
+9.6 +4.6 71 +9 +13 1014.4 941.4 -1.1
03 14.06 З 2 50 км 6/4 1000 м
[Cu med, cong Cc]
+18.8 +5.8 43 +20 +29 1010.9 940.3
06 14.06 В 2 50 км 9/9 1000 м
[Cu med, cong]
+21.2 +5.6 36 +22 +23 комфорт 1009.4 939.5
09 14.06 СВ 1 50 км 8/8 1000 м
[Cu med, cong]
+21.5 +4.0 32 +22 +23 комфорт 1008.8 938.9
12 14.06 ЮВ 1 50 км 5/0
[Ac As Cs]
+17.8 +4.9 43 +19 +19 1010.9 940.0 +22.6
15 14.06 СЗ 1 50 км 8/0
[Cs]
+7.5 +5.0 84 +7 +7 1014.9 941.3
18 14.06 штиль 0 50 км 8/0
[Ac lent]
+3.4 +2.2 92 +2 +2 1016.9 942.0
21 14.06 штиль 0 50 км 3/0
[Ac cast Ci fib]
+4.4 +2.8 89 +3 +4 1016.8 942.2
00 15.06 В 1 50 км 3/0
[Ci]
+14.2 +7.1 62 +15 +23 1013.3 941.5 +2.0
03 15.06 Ю 3 50 км 8/1 1000 м
[Cu med, cong Cc]
+23.2 +7.3 36 +24 +34 комфорт 1009.3 939.8
06 15.06 Ю 3 50 км 9/8 1000 м
[Cb calv Ci sp]
+25.6 +8.2 33 +26 +28 жарко 1006.7 938.0
09 15.06 З 3 50 км 9/8 1000 м
[Cb calv Ac und Ci ing]
+23.5 +10.5 44 +25 +25 комфорт 1006.8 937.6
12 15.06 С 1 50 км 3/3 1000 м
[Cb calv Ci ing]
+17.6 +10.4 63 +19 +19 1008.8 938.2 +25.9
15 15.06 Ю 1 50 км 8/8 1000 м
[Cb calv Ci ing]
+11.1 +8.8 86 +11 +11 1010.6 938.3
18 15.06 штиль 0 50 км ясно +8.3 +7.3 93 +7 +7 1011.4 938.3
21 15.06 штиль 0 50 км 8/8 1000 м
[Sc]
+10.0 +7.5 84 +9 +10 1011.2 938.5
00 16.06 штиль 0 50 км 3/1 1000 м
[Cu hum Ac trans Cc]
+18.6 +10.9 61 +19 +27 1003.2 937.8 +6.3
03 16.06 З 5 50 км 3/3 1000 м
[Cb calv]
+26.6 +8.5 32 +27 +33 жарко 1004.9 936.5
06 16.06 ЮЗ 4
{10}
50 км 4/4 1000 м
[Cb calv]
+28.7 +6.3 24 +28 +33 жарко 1002.4 934.6
09 16.06 З 1
{18}
50 км {гроза, ливн. осадки} 9/9 600 м
[Cb calv]
+26.8 +10.0 35 +27 +28 жарко 1001.6 933.5
12 16.06 ЮЗ 1 50 км {ливн. осадки} 10/8 600 м
[Cb calv Ac trans Ci fib]
+21.7 +12.6 56 +24 +24 комфорт 1003.3 934.0 +28.9 0.3
15 16.06 ЮВ 1 50 км 9/9 1000 м
[Cb calv]
+15.8 +11.5 76 +17 +17 1005.8 934.9
18 16.06 штиль 0 50 км 9/1 1000 м
[Cu Sc Ac lent Ci fib]
+10.5 +8.7 89 +10 +10 1008.4 936.1
21 16.06 штиль 0 50 км 4/0
[Ci fib]
+10.6 +8.2 85 +10 +11 1010.0 937.6
00 17.06 В 3 50 км 6/4 1000 м
[Cb calv Ci fib]
+18.8 +13.0 69 +20 +23 1008.7 938.4 +8.2
03 17.06 ЮВ 2 50 км 4/4 1000 м
[Cb calv]
+22.0 +13.1 57 +25 +34 комфорт 1007.8 938.3
06 17.06 В 3 50 км 4/3 1000 м
[Cb calv Ci fib]
+25.0 +8.8 36 +26 +33 жарко 1006.1 937.3
09 17.06 ЮВ 3 50 км 3/1 1000 м
[Cb calv Ci fib]
+25.4 +7.2 31 +25 +29 комфорт 1005.3 936.6
12 17.06 Ю 1 50 км ясно +21.8 +8.5 42 +23 +23 комфорт 1006.8 937.2 +25.6
15 17.06 СЗ 1 50 км ясно +9.4 +6.7 83 +9 +9 1011.3 938.4
18 17.06 штиль 0 50 км ясно +5.9 +4.5 91 +5 +5 1012.9 939.0
21 17.06 штиль 0 50 км ясно +4.1 +2.6 90 +3 +4 1013.0 938.6
00 18.06 СВ 2 50 км 10/10 1000 м
[Cb calv]
+10.5 +7.1 79 +9 +9 1010.6 938.1 +3.4
03 18.06 ЮВ 1 50 км 4/3 1000 м
[Cu med, cong Ci sp]
+22.7 +12.0 51 +25 +38 комфорт 1005.0 935.9
06 18.06 З 3 50 км 8/8 1000 м
[Cu med, cong]
+27.9 +12.3 38 +29 +31 жарко 1000.6 932.9
09 18.06 СЗ 3 50 км 8/8 1000 м
[Cu med, cong Ci fib]
+28.9 +10.0 31 +29 +30 жарко 998.6 931.1
12 18.06 З 1 50 км 6/4 1000 м
[Cb calv Ac cuf]
+19.1 +14.4 74 +21 +21 комфорт 1000.9 931.2 +30.3
15 18.06 СЗ 1 50 км {гроза} 4/4 1000 м
[Cb calv]
+15.6 +12.7 83 +16 +16 1003.6 932.9
18 18.06 штиль 0 50 км {гроза} ясно +9.5 +8.4 93 +9 +9 1006.6 934.1
21 18.06 штиль 0 50 км ясно +8.6 +6.4 86 +8 +9 1007.9 935.1

 

Местоположение метеостанции Могоча (Забайкальский край, Россия): широта 53.75 долгота 119.70 высота над уровнем моря 625 м.

В архиве по умолчанию представлена погода в Могоче за последнюю неделю. Архивные данные за месяц целиком и за предыдущие месяцы, начиная с января 2011 года, Вы можете получить, выбрав интересующий диапазон дат из раскрывающегося списка и нажав кнопку "Ввод!".


*Определитесь, кто Вы:
робот инопланетянин человек

Внимание! Время в таблицах - всемирное. Для получения местного времени необходимо прибавить поправку, которая равна 9 ч.

Смотрите также архив погоды в соседних городах и на ближайших метеорологических станциях:

Погода в Ксеньевской (Забайкальский край, Россия) (70 км)
Погода в Амазаре (Забайкальский край, Россия) (73 км)
Погода в Тупике (Забайкальский край, Россия) (77 км)
Погода в Урюпино (Забайкальский край, Россия) (113 км)
Погода в Покровке (Забайкальский край, Россия) (127 км)
Погода в Усть-Карске (Забайкальский край, Россия) (131 км)
Погода в Ерофей Павловиче (Амурская область, Россия) (146 км)
Погода в Игнасино (Амурская область, Россия) (181 км)
Погода в Средней Олекме (Забайкальский край, Россия) (194 км)
Погода в Сретенске (Забайкальский край, Россия) (216 км)

Пояснения к столбцам:

Ветер - указаны скорость ветра в м/с - средняя за 10 мин, порывы в срок и между сроками (в фигурных скобках) и направление, откуда дует ветер: С - северный, СВ - северо-восточный, В - восточный, ЮВ - юго-восточный, Ю - южный, ЮЗ - юго-западный, З - западный, СЗ - северо-западный.
Видимость - горизонтальная дальность видимости в метрах или километрах. При видимости от 1 до 10 км при отсутствии осадков обычно наблюдается дымка, при ухудшении видимости до 1 км и менее - туман. В сухую погоду видимость может ухудшаться дымом, пылью или мглою.
Явления - указаны атмосферные явления, наблюдавшиеся в срок или в последний час перед сроком; фигурными скобками обозначены явления, наблюдавшиеся между сроками (за 1-3 часа до срока); квадратными скобками обозначены град или гололедные отложения с указанием их диаметра в мм.
Облачность - указаны через наклонную черту общая и нижняя облачность в баллах и высота нижней границы облаков в метрах; квадратными скобками обозначены формы облаков: Ci - перистые, Cs - перисто-слоистые, Cc - перисто-кучевые, Ac - высококучевые, As - высокослоистые, Sc - слоисто-кучевые, Ns - слоисто-дождевые, Cu - кучевые, Cb - кучево-дождевые. Подробнее классификацию облаков см. в Атласе облаков (PDF).
T - Температура воздуха - температура, измеренная на высоте 2 м над землей.
Td - Температура точки росы - температура, при понижении до которой содержащийся в воздухе водяной пар достигнет насыщения.
f - Относительная влажность воздуха - влажноcть воздуха, измеренная на высоте 2 м над землей.
Te - Эффективная температура - температура, которую ощущает одетый по сезону человек в тени. Характеристика душности погоды. При расчете учитывается влияние влажности воздуха и скорости ветра на теплоощущения человека.
Tes - Эффективная температура на солнце - температура, которую ощущает человек, с поправкой на солнечный нагрев. Характеристика знойности погоды. Зависит от высоты солнца над горизонтом, облачности и скорости ветра. Ночью, в пасмурную погоду, а также при ветре 12 м/с и более поправка равна нулю.
P - Атмосферное давление - приведенное к уровню моря атмосферное давление.
Po - Атмосферное давление - измеренное на уровне метеостанции атмосферное давление.
Tmin - Минимальная температура - минимум температуры воздуха на высоте 2 м над землей.
Tmax - Максимальная температура - максимум температуры воздуха на высоте 2 м над землей.
R - Количество осадков - Количество выпавших осадков за период времени, мм. При наведении курсора мыши на число - период времени, за который выпало указанное количество осадков.
R24 - Количество осадков - Количество выпавших осадков за 24 часа, мм.
S - Снежный покров - Высота снежного покрова, см. При наведении курсора мыши на число - состояние снежного покрова и степень покрытия местности в баллах.